Regional Weather Roundup
Issued by NWS

Home | Current Version | Previous Version | Text Only | Print | Product List | Glossary On
Versions: 1 2 3 4 5 6 7 8 9 10 11 12 13 14 15 16 17 18 19 20 21 22 23 24 25 26 27 28 29 30 31 32 33 34 35 36 37 38 39 40 41 42 43 44 45 46 47 48 49 50
000
ASUS46 KLOX 240312
RWRCA

SOUTHERN CALIFORNIA WEATHER ROUNDUP
NATIONAL WEATHER SERVICE OXNARD CALIFORNIA
700 PM PST SUN NOV 23 2014

NOTE: "FAIR" INDICATES FEW OR NO CLOUDS BELOW 12,000 FEET WITH NO
SIGNIFICANT WEATHER AND/OR OBSTRUCTIONS TO VISIBILITY.

  -  STATIONS PRECEEDED BY AN ASTERISK (*) ARE NOT NWS OR FAA
     STATIONS AND ARE NOT SUBJECT TO NWS AND FAA QUALITY CONTROL.

CAZ041-042-087-240400-
LA AND ORANGE COUNTY COASTAL AREAS


CITY           SKY/WX    TMP DP  RH WIND       PRES   REMARKS
L.A. DOWNTOWN  PTCLDY    67  12  12 CALM      30.10R
L.A. AIRPORT   MOCLDY    70   8   9 N8        30.10R
LONG BEACH     PTCLDY    64  47  53 SE5       30.10R

CITY           SKY/WX    TMP DP  RH WIND       PRES   REMARKS
AVALON           N/A     61 N/A N/A S5          N/A
FULLERTON      PTCLDY    64  40  41 CALM      30.09R
*GETTY CENTER    N/A     68  -4   5 VRB17G29    N/A
HAWTHORNE      PTCLDY    70  11  10 CALM      30.10R
*LEO CARRILLO    N/A     70  17  13 NE5         N/A
*LOS ALAMITOS  FAIR      61  47  59 E3        30.10R
*REDONDO BEACH   N/A     65  23  20 CALM      30.10R
SANTA ANA      MOCLDY    69  11  10 CALM      30.10R
STA MONICA APT PTCLDY    71   4   7 VRB7      30.10R
TORRANCE       MOCLDY    66  19  16 SW8       30.11R
*UCLA            N/A     68  10  10 N8        30.09R

$$

CAZ547-548-048-240400-
LA COUNTY VALLEYS AND INLAND EMPIRE


CITY           SKY/WX    TMP DP  RH WIND       PRES   REMARKS
BURBANK        PTCLDY    67   3   8 NW7       30.12R
VAN NUYS       PTCLDY    67   7   9 NW9       30.14R

CITY           SKY/WX    TMP DP  RH WIND       PRES   REMARKS
CORONA AIRPORT MOCLDY    67   5   8 SE7       30.13R
*CHATSWORTH      N/A     68  20  16 W3        30.12R
CHINO          MOCLDY    65   5   9 E9        30.12S
*CLAREMONT       N/A     54   9  16 N2          N/A
MARCH AFB      MOCLDY    55   8  14 NE2       30.16R
*NORTHRIDGE      N/A     66   7   9 E2          N/A
ONTARIO        MOCLDY    63   4   9 NW7       30.12R
RIVERSIDE      MOCLDY    67   5   8 NE8       30.13S
SAN BERNARDINO PTCLDY    59  10  14 E5        30.14S
*SAN RAFAEL HI   N/A     65 -38   1 SW10G22     N/A
*SAUGUS          N/A     58   9  14 N8          N/A
*WHITEMAN AP   MOCLDY    68   1   7 N9        30.16S
*WOODLAND HILL   N/A     61  12  15 SW1         N/A

$$

CAZ054-055-240400-
LA AND SAN BERNARDINO COUNTY MOUNTAINS


CITY           SKY/WX    TMP DP  RH WIND       PRES   REMARKS
*ACTON           N/A     56   6  13 N9          N/A
*BIG BEAR AIRP PTCLDY    28   3  34 CALM      30.29S
*BIG PINES       N/A     38 -18   8 CALM        N/A
MT WILSON NWS    N/A     46 -24   4 MISG        N/A
SANDBERG       PTCLDY    47  21  35 N12       30.27R
*WARM SPRINGS    N/A     50   9  19 NE13        N/A

$$

CAZ028-029-059-060-099-240400-
ANTELOPE VALLEY AND SURROUNDING AREAS


CITY           SKY/WX    TMP DP  RH WIND       PRES   REMARKS
LANCASTER      MOCLDY    48  30  49 W10       30.24R
PALMDALE       MOCLDY    49  10  20 CALM      30.24R
*POPPY PARK      N/A     51  24  35 NW8         N/A

CITY           SKY/WX    TMP DP  RH WIND       PRES   REMARKS
29 PALMS       CLEAR     52  11  19 W9        30.28F
BARSTOW/DAGGET CLEAR     50   8  18 NW3       30.23R
BISHOP         CLOUDY    53  -5   9 SE3       30.23R
CHINA LAKE     CLEAR     52  10  18 CALM      30.22R
EDWARDS AFB    PTCLDY    46   7  20 CALM      30.22R
MOJAVE         FAIR      50  36  57 W10       30.25R
NEEDLES        CLEAR     58   4  11 N8        30.19R
VICTORVILLE    MOCLDY    46   7  19 SW3       30.24R

$$

CAZ039-040-240400-
VENTURA AND SANTA BARBARA COUNTY COAST


CITY           SKY/WX    TMP DP  RH WIND       PRES   REMARKS
CAMARILLO      PTCLDY    59  36  42 CALM      30.13R
NWS OXNARD       N/A     60  42  51 CALM      30.13R
OXNARD AIRPORT PTCLDY    61  46  57 CALM      30.13R
*POINT MUGU    PTCLDY    60  44  55 NW7       30.13S
SBA APT/GOLETA CLEAR     60  38  43 VRB3      30.12R
*SANTA BARBARA   N/A     63  49  61 CALM      30.21R
*VENTURA         N/A     65  31  28 NW5       30.17S

$$

CAZ044-045-240400-
VENTURA COUNTY VALLEYS


CITY           SKY/WX    TMP DP  RH WIND       PRES   REMARKS
*SIMI VALLEY     N/A     65  23  20 NE6       30.11R
*OJAI            N/A     51  40  64 CALM      30.12S
*FILLMORE        N/A     58  35  43 E7        30.05R

$$

CAZ053-240400-
VENTURA COUNTY MOUNTAINS


CITY           SKY/WX    TMP DP  RH WIND       PRES   REMARKS

$$

CAZ034-035-036-240400-
CENTRAL COAST AND SANTA YNEZ VALLEY


CITY           SKY/WX    TMP DP  RH WIND       PRES   REMARKS
SAN LUIS OBISP CLEAR     57  35  43 SE3       30.22R
SANTA MARIA    CLEAR     65  23  20 N10       30.21R

CITY           SKY/WX    TMP DP  RH WIND       PRES   REMARKS
*CAL POLY SLO    N/A     63  36  36 NE6G12      N/A
*LOMPOC        CLEAR     61  27  27 W6        30.20R
*PISMO BEACH     N/A     60  35  39 NW1       30.22S
*SANTA YNEZ    FAIR      57  23  26 CALM      30.19R

$$

CAZ037-038-051-240400-
SAN LUIS OBISPO COUNTY INTERIOR AND CUYAMA VALLEY


CITY           SKY/WX    TMP DP  RH WIND       PRES   REMARKS
*CUYAMA          N/A     47  35  62 SE3       30.25R
PASO ROBLES    CLEAR     54  35  48 SE3       30.26R

$$

CAZ032-033-061-240400-
SOUTHERN DESERTS


CITY           SKY/WX    TMP DP  RH WIND       PRES   REMARKS
BLYTHE         CLEAR     63   6  10 N16       30.15R
IMPERIAL       PTCLDY    59  26  28 CALM      30.14R
PALM SPRINGS   PTCLDY    64  15  15 W5        30.17F
THERMAL        CLEAR     52  21  29 N5        30.13S

$$

ELSEWHERE ACROSS THE WESTERN UNITED STATES AND MEXICO


CITY           SKY/WX    TMP DP  RH WIND       PRES   REMARKS
DENVER, CO     MOCLDY    28  18  66 W7        29.89S WCI  21
GRAND CANYON,  CLEAR     21  -7  28 CALM      30.21R
HONOLULU, HI   MOCLDY    81  70  69 SW8       29.89S
KAHULUI, MAUI  CLEAR     82  64  54 SW8       29.89R
LAKE TAHOE, CA PTCLDY    34  25  69 CALM      30.31R
LAS VEGAS, NV  PTCLDY    54  11  18 W8        30.18R
MAMMOTH LAKES, MOCLDY    34   3  27 NW6       30.30R WCI  29
MEXICO CITY, M CLEAR     64  50  59 SE3       30.23R
PHOENIX, AZ    PTCLDY    62   9  12 CALM      30.07R
PORTLAND, OR   MOCLDY    49  49 100 CALM      30.32R
RENO, NV       PTCLDY    40  26  57 NE3       30.32R
SALT LAKE CITY MOCLDY    37  23  56 S7        30.24R WCI  32
SAN DIEGO, CA  MOCLDY    67  44  43 CALM      30.11R
SAN FRANCISCO, PTCLDY    57  51  80 W9        30.29R
SAN JOSE, CA   CLEAR     55  41  59 SW6       30.28R
SEATTLE, WA    PTCLDY    46  40  79 S7        30.26R
TIJUANA, MEX   MOCLDY    63  50  63 CALM      30.13R

$$

STATION/POSITION TIME  TEMP    WIND        PRES    VSBY  WAVE
                       AIR SEA DIR/SP/G                  HT/PER
                 (UTC) (F)     (DEG/KT/KT) (MB)    (MI)  (FT/S)
POINT ARGUELLO B NOT AVBL
WEST SANTA BARBA 0300   65 61  330/ 17/ 19 1020.1S         9/15
POINT CONCEPTION NOT AVBL
EAST SANTA BARBA 0200   68 65  300/  8/  8 1020.1
SANTA MONICA BAY 0200   67 66  320/ 16/ 19 1019.8R         4/14


USA.gov is the U.S. government's official web portal to all federal, state and local government web resources and services.